STARLINK-11441 [DTC]

Last updated on Thu Jan 23 2025 00:02:04 GMT+0000 (Coordinated Universal Time)

1 62413U 24249E 25022.49050638 .00004632 00000+0 29461-4 0 9993 2 62413 42.9979 127.6769 0001438 248.6805 111.3912 15.77861528 4793
UTC large
Height (km)
Speed (km/s)
/
Latitude / Longitude
Inclination (degrees)
Orbital Period (minutes)
Azimuth
Elevation
Range (km)
Doppler Factor

Next 0 passes for location: London (51.5072 / 0.1276)

Sorry there are no passes over London.